When you browse on this site, cookies collect data to enhance your experience and personalize the content and advertising you see.
Visit our Privacy Policy to learn more. By continuing to use the site, you agree to this use of cookies and data.
  • In Slovakia
  • List of Countries
  • For 7 days
  • Water Temperature
  • Satellite Maps
  • Weather Map
  • Weather Widgets
  • user-avatar
    Login

    Hourly Weather Giumri

    Today, 20 June, Thursday

    Time Temperature Precipitation Wind Pressure Humidity
    00:00 +15°C° 0.2 mm 1 mps 633 mmHg 83%
    01:00 +14°C° 0 mm 1 mps 633 mmHg 84%
    02:00 +14°C° 0 mm 1 mps 632 mmHg 84%
    03:00 +14°C° 0 mm 1 mps 632 mmHg 85%
    04:00 +14°C° 0 mm 1 mps 632 mmHg 84%
    05:00 +15°C° 0 mm 1 mps 633 mmHg 84%
    06:00 +16°C° 0 mm 1 mps 633 mmHg 83%
    07:00 +19°C° 0.6 mm 1 mps 633 mmHg 77%
    08:00 +20°C° 0.6 mm 1 mps 633 mmHg 72%
    09:00 +21°C° 0.6 mm 2 mps 634 mmHg 66%
    10:00 +23°C° 1.3 mm 2 mps 634 mmHg 63%
    11:00 +24°C° 1.3 mm 2 mps 634 mmHg 60%
    12:00 +24°C° 1.3 mm 3 mps 634 mmHg 57%
    13:00 +24°C° 0.9 mm 3 mps 633 mmHg 57%
    14:00 +25°C° 0.9 mm 3 mps 633 mmHg 57%
    15:00 +25°C° 0.9 mm 3 mps 633 mmHg 57%
    16:00 +22°C° 0.8 mm 3 mps 633 mmHg 64%
    17:00 +21°C° 0.8 mm 2 mps 632 mmHg 72%
    18:00 +19°C° 0.8 mm 2 mps 632 mmHg 80%
    19:00 +19°C° 0.3 mm 1 mps 632 mmHg 80%
    20:00 +18°C° 0.3 mm 1 mps 632 mmHg 81%
    21:00 +16°C° 0.3 mm 1 mps 632 mmHg 82%
    22:00 +16°C° 0.4 mm 1 mps 632 mmHg 83%
    23:00 +15°C° 0.4 mm 1 mps 632 mmHg 84%

    Tomorrow, 21 June, Friday

    Time Temperature Precipitation Wind Pressure Humidity
    00:00 +15°C° 0.4 mm 1 mps 632 mmHg 85%
    01:00 +14°C° 0 mm 1 mps 632 mmHg 85%
    02:00 +14°C° 0 mm 1 mps 631 mmHg 85%
    03:00 +13°C° 0 mm 1 mps 631 mmHg 85%
    04:00 +14°C° 0.1 mm 1 mps 631 mmHg 84%
    05:00 +15°C° 0.1 mm 1 mps 632 mmHg 84%
    06:00 +15°C° 0.1 mm 1 mps 632 mmHg 83%
    07:00 +18°C° 0.1 mm 1 mps 632 mmHg 78%
    08:00 +20°C° 0.1 mm 1 mps 633 mmHg 72%
    09:00 +20°C° 0.1 mm 2 mps 633 mmHg 67%
    10:00 +21°C° 0.7 mm 2 mps 634 mmHg 63%
    11:00 +24°C° 0.7 mm 2 mps 634 mmHg 59%
    12:00 +25°C° 0.7 mm 2 mps 634 mmHg 55%
    13:00 +25°C° 0.5 mm 2 mps 634 mmHg 55%
    14:00 +25°C° 0.5 mm 3 mps 634 mmHg 55%
    15:00 +25°C° 0.5 mm 3 mps 634 mmHg 56%
    16:00 +24°C° 0.4 mm 3 mps 633 mmHg 60%
    17:00 +22°C° 0.4 mm 4 mps 633 mmHg 65%
    18:00 +21°C° 0.4 mm 4 mps 633 mmHg 70%
    19:00 +19°C° 0.2 mm 3 mps 633 mmHg 75%
    20:00 +17°C° 0.2 mm 3 mps 633 mmHg 79%
    21:00 +16°C° 0.2 mm 2 mps 633 mmHg 84%
    22:00 +15°C° 0.1 mm 2 mps 633 mmHg 85%
    23:00 +15°C° 0.1 mm 2 mps 633 mmHg 86%

    Day after tomorrow, 22 June, Saturday

    Time Temperature Precipitation Wind Pressure Humidity
    00:00 +14°C° 0.1 mm 2 mps 633 mmHg 87%
    01:00 +14°C° 0 mm 2 mps 633 mmHg 87%
    02:00 +14°C° 0 mm 2 mps 633 mmHg 86%
    03:00 +14°C° 0 mm 2 mps 633 mmHg 86%
    04:00 +14°C° 0 mm 2 mps 633 mmHg 85%
    05:00 +15°C° 0 mm 2 mps 634 mmHg 85%
    06:00 +16°C° 0 mm 2 mps 634 mmHg 84%
    07:00 +17°C° 0.1 mm 2 mps 635 mmHg 79%
    08:00 +19°C° 0.1 mm 2 mps 635 mmHg 74%
    09:00 +21°C° 0.1 mm 2 mps 636 mmHg 69%
    10:00 +23°C° 0.8 mm 2 mps 636 mmHg 67%
    11:00 +24°C° 0.8 mm 3 mps 636 mmHg 64%
    12:00 +25°C° 0.8 mm 3 mps 636 mmHg 61%
    13:00 +25°C° 0.9 mm 3 mps 636 mmHg 61%
    14:00 +25°C° 0.9 mm 3 mps 636 mmHg 61%
    15:00 +25°C° 0.9 mm 4 mps 636 mmHg 61%
    16:00 +23°C° 0.5 mm 4 mps 635 mmHg 65%
    17:00 +24°C° 0.5 mm 3 mps 635 mmHg 68%
    18:00 +22°C° 0.5 mm 3 mps 635 mmHg 72%
    19:00 +20°C° 0.3 mm 3 mps 635 mmHg 76%
    20:00 +19°C° 0.3 mm 3 mps 635 mmHg 80%
    21:00 +17°C° 0.3 mm 2 mps 635 mmHg 84%
    22:00 +16°C° 0.4 mm 2 mps 635 mmHg 85%
    23:00 +16°C° 0.4 mm 2 mps 635 mmHg 85%

    23 June, Sunday

    Time Temperature Precipitation Wind Pressure Humidity
    00:00 +15°C° 0.4 mm 1 mps 635 mmHg 86%
    01:00 +15°C° 0.1 mm 1 mps 635 mmHg 86%
    02:00 +15°C° 0.1 mm 1 mps 634 mmHg 85%
    03:00 +15°C° 0.1 mm 1 mps 634 mmHg 85%
    04:00 +15°C° 0 mm 1 mps 635 mmHg 84%
    05:00 +16°C° 0 mm 1 mps 635 mmHg 83%
    06:00 +18°C° 0 mm 1 mps 635 mmHg 82%
    07:00 +19°C° 0.1 mm 1 mps 636 mmHg 77%
    08:00 +21°C° 0.1 mm 1 mps 636 mmHg 71%
    09:00 +23°C° 0.1 mm 1 mps 637 mmHg 66%
    10:00 +24°C° 0.3 mm 1 mps 637 mmHg 61%
    11:00 +26°C° 0.3 mm 2 mps 637 mmHg 57%
    12:00 +27°C° 0.3 mm 2 mps 638 mmHg 53%
    13:00 +27°C° 0.3 mm 2 mps 637 mmHg 52%
    14:00 +28°C° 0.3 mm 3 mps 637 mmHg 52%
    15:00 +28°C° 0.3 mm 3 mps 637 mmHg 51%
    16:00 +27°C° 0.2 mm 3 mps 637 mmHg 57%
    17:00 +26°C° 0.2 mm 3 mps 636 mmHg 62%
    18:00 +25°C° 0.2 mm 3 mps 636 mmHg 68%
    19:00 +24°C° 0.1 mm 3 mps 636 mmHg 70%
    20:00 +21°C° 0.1 mm 3 mps 636 mmHg 71%
    21:00 +19°C° 0.1 mm 3 mps 636 mmHg 73%
    22:00 +18°C° 0.1 mm 3 mps 635 mmHg 76%
    23:00 +17°C° 0.1 mm 2 mps 635 mmHg 79%

    24 June, Monday

    Time Temperature Precipitation Wind Pressure Humidity
    00:00 +16°C° 0.1 mm 2 mps 635 mmHg 82%
    01:00 +16°C° 0.3 mm 2 mps 634 mmHg 83%
    02:00 +16°C° 0.3 mm 2 mps 634 mmHg 84%
    03:00 +15°C° 0.3 mm 2 mps 634 mmHg 85%
    04:00 +16°C° 0.1 mm 2 mps 635 mmHg 84%
    05:00 +17°C° 0.1 mm 2 mps 635 mmHg 83%
    06:00 +18°C° 0.1 mm 1 mps 635 mmHg 82%
    07:00 +20°C° 0.1 mm 1 mps 636 mmHg 76%
    08:00 +22°C° 0.1 mm 1 mps 636 mmHg 69%
    09:00 +24°C° 0.1 mm 1 mps 637 mmHg 63%
    10:00 +26°C° 0.3 mm 1 mps 637 mmHg 59%
    11:00 +27°C° 0.3 mm 1 mps 637 mmHg 55%
    12:00 +28°C° 0.3 mm 1 mps 637 mmHg 51%
    13:00 +28°C° 0.2 mm 2 mps 637 mmHg 50%
    14:00 +28°C° 0.2 mm 2 mps 637 mmHg 49%
    15:00 +29°C° 0.2 mm 2 mps 637 mmHg 49%
    16:00 +28°C° 0.1 mm 2 mps 637 mmHg 54%
    17:00 +27°C° 0.1 mm 3 mps 636 mmHg 60%
    18:00 +26°C° 0.1 mm 3 mps 636 mmHg 66%
    19:00 +24°C° 0 mm 3 mps 636 mmHg 69%
    20:00 +21°C° 0 mm 3 mps 636 mmHg 73%
    21:00 +18°C° 0 mm 3 mps 636 mmHg 77%
    22:00 +18°C° 0 mm 2 mps 635 mmHg 76%
    23:00 +18°C° 0 mm 2 mps 635 mmHg 75%

    25 June, Tuesday

    Time Temperature Precipitation Wind Pressure Humidity
    00:00 +17°C° 0 mm 2 mps 635 mmHg 74%
    01:00 +17°C° 0 mm 2 mps 635 mmHg 75%
    02:00 +17°C° 0 mm 2 mps 635 mmHg 75%
    03:00 +16°C° 0 mm 2 mps 635 mmHg 75%
    04:00 +17°C° 0 mm 2 mps 635 mmHg 75%
    05:00 +19°C° 0 mm 1 mps 635 mmHg 75%
    06:00 +19°C° 0 mm 1 mps 636 mmHg 75%
    07:00 +21°C° 0 mm 1 mps 636 mmHg 69%
    08:00 +23°C° 0 mm 1 mps 637 mmHg 63%
    09:00 +26°C° 0 mm 1 mps 637 mmHg 58%
    10:00 +27°C° 0.1 mm 1 mps 637 mmHg 54%
    11:00 +28°C° 0.1 mm 1 mps 637 mmHg 51%
    12:00 +29°C° 0.1 mm 1 mps 638 mmHg 48%
    13:00 +30°C° 0.1 mm 2 mps 637 mmHg 46%
    14:00 +30°C° 0.1 mm 2 mps 637 mmHg 45%
    15:00 +30°C° 0.1 mm 2 mps 637 mmHg 44%
    16:00 +29°C° 0.1 mm 2 mps 637 mmHg 51%
    17:00 +28°C° 0.1 mm 3 mps 636 mmHg 58%
    18:00 +27°C° 0.1 mm 3 mps 636 mmHg 65%
    19:00 +25°C° 0 mm 3 mps 636 mmHg 69%
    20:00 +22°C° 0 mm 3 mps 636 mmHg 73%
    21:00 +20°C° 0 mm 3 mps 635 mmHg 77%
    22:00 +19°C° 0.2 mm 2 mps 635 mmHg 78%
    23:00 +18°C° 0.2 mm 2 mps 635 mmHg 79%
    Show more